Starlink 4004

operational
NORAD ID: 52656 Int'l Des: 2022-053 Owner: SPXS Country: US Constellation: starlink
LEOCIRCULAR

Über Starlink 4004

Beschreibung wird geladen...

Live-Position

3D-Globus wird geladen...

Nächste Überflüge

Höhenverlauf

Altitude vs Time

uPlot chart will show altitude changes over time

Zweizeiliger Elementsatz

1 52656U 22053A 25257.29488212 .00000881 00000-0 73481-4 0 9997
2 52656 53.2160 225.9982 0001505 84.8305 275.2859 15.08830227184488
Epoch: 14. Sept. 2025 • Age: 26 hours

Aktueller Status

Höhe 543.6 km
Geschwindigkeit 7.60 km/s
Subsatellitenpunkt 45.18°N, 137.39°W
Startdatum 18. Mai 2022
Alter 3.3 years
Typ internet

Technische Details

Klassifizierung Payload
Masse 297.00 kg
Trockenmasse 275.00 kg
Gesamtmasse 297.00 kg
Länge 0.20 m
Durchmesser 2.80 m
Spannweite 9.00 m
Form Box + pan
Hersteller SPXS
Bus-Typ Starlink
Phasenstatus In Orbit
Besitzer/Staat SPXS/US

Große Konstellationen

Loading constellations...